Location: Comarca San Jos� De Las Ca�adas
(12.0979°N, 86.3274°W)
Time: 03:48:23
(UTC+00:00)

Daily predictions for brighter satellites

Satellite Brightness Start Highest point End
(mag) Time Altitude Azimuth Time Altitude Azimuth Time Altitude Azimuth
USA 276 3.4 00:00:27 10° N 00:03:00 22° NE 00:04:19 17° E
YAOGAN 1 3.7 00:05:02 10° SE 00:08:16 21° ENE 00:11:29 10° NNE
COSMOS 2487 2.6 00:05:22 10° NNW 00:08:45 71° WSW 00:12:08 10° S
S3M 3.9 00:06:49 10° S 00:12:48 61° E 00:18:47 10° NNE
GPS 2-12 Rocket1 3.6 00:09:19 10° WNW 00:13:29 41° N 00:15:56 21° ENE
Cosmos 1812 Rocket 4.1 00:10:57 10° SSE 00:15:01 36° E 00:19:04 10° NNE
CZ-2C R/B 3.9 00:12:08 10° SE 00:17:15 33° ENE 00:22:21 10° NNE
Cosmos 1315 Rocket 2.7 00:14:31 10° S 00:18:21 61° E 00:22:13 10° NNE
CZ-2D R/B 3.2 00:17:23 10° SSE 00:21:09 58° ENE 00:24:54 10° N
Cosmos 2369 3.8 00:17:17 10° SSW 00:23:00 81° WNW 00:28:43 10° NNE
Meteor 2-10 Rocket 3.7 00:20:36 10° S 00:26:12 81° W 00:31:34 10° N
SWIFT 2.9 00:25:11 10° WNW 00:29:14 42° NNE 00:30:27 33° NE
Okean-O 2.6 00:25:02 10° SSE 00:29:21 56° ENE 00:33:41 10° N
Atlas Centaur 2 4.4 00:22:33 10° WNW 00:29:25 27° NNW 00:35:21 13° NE
ATLAS 5 CENTAUR R/B 2.2 00:29:25 10° SW 00:30:15 12° SSW 00:30:49 11° S
Hubble Space Telescope 1.6 00:27:12 10° NW 00:30:55 32° NNE 00:31:27 30° NE
Delta 7925 Rocket 3.5 00:26:16 10° WSW 00:32:31 82° SSE 00:34:53 33° ENE
Meteor 2-1 Rocket 4.3 00:28:49 10° S 00:34:23 80° W 00:39:54 10° N
CZ-3B R/B 4.3 00:20:39 10° SSW 00:34:28 28° SE 00:36:44 23° ESE
Timation 2 Rocket 4.4 00:31:03 10° N 00:37:30 45° ENE 00:44:00 10° SE
CRYOSAT 2 4.2 00:35:45 10° N 00:40:36 79° E 00:45:28 10° S
Orbus 7S 4.3 00:39:53 10° WNW 00:42:16 29° NNW 00:42:43 28° N
Orbus 7S 4.1 00:39:31 10° W 00:42:20 27° NNW 00:42:33 27° NNW
SEDSat Delta rocket 3.9 00:36:30 10° SW 00:43:15 79° SSE 00:45:48 39° ENE
CSL-04 Rocket 4.2 00:40:06 10° SE 00:46:03 38° NE 00:50:23 10° N
H-10 deb 3.8 00:15:15 10° W 00:53:15 63° S 00:55:52 36° ESE
CZ-2C R/B 2.5 00:53:04 47° NE 00:54:21 61° ESE 00:59:33 10° S
Helios 1A Rocket 3.9 00:52:20 10° S 00:56:18 46° WSW 01:00:16 10° NNW
H-2A R/B 3.0 00:55:42 10° SSE 01:03:05 34° N 01:06:11 10° N
SL-08 ROCKET BODY 4.4 00:56:16 10° N 01:02:26 90° NE 01:08:38 10° S
Cosmos 1340 4.3 01:07:38 10° NNW 01:11:03 33° W 01:14:28 10° SSW
Gbstr 26 Del rocket 4.4 01:04:33 10° NW 01:12:09 83° SW 01:17:05 27° SSE
Cosmos 1980 Rocket 3.5 01:12:52 10° SW 01:18:05 38° WNW 01:22:19 15° N
CZ-4 R/B 3.4 01:14:47 10° SSW 01:18:11 27° W 01:21:32 10° NW
CSL-04 Debris 4.3 01:18:09 10° S 01:23:31 70° WSW 01:28:54 10° NNW
Cosmos 1745 Rocket 4.4 01:22:35 10° NNW 01:28:47 60° W 01:35:02 10° S
Milstar 3 4.3 01:30:39 10° NW 01:34:45 23° N 01:34:45 23° N
Cosmos 2297 Rocket 4.2 01:30:47 10° NNW 01:32:04 18° NNW 01:32:04 18° NNW
ARIANE 5 R/B 4.0 08:53:50 34° SE 08:53:50 34° SE 09:07:33 10° E
Cosmos 2082 Rocket 3.3 09:17:40 10° S 09:22:53 40° ESE 09:28:04 10° NE
ATLAS 3B R/B 3.0 09:36:11 48° N 09:36:11 48° N 09:40:49 10° NNE
Cosmos 44 3.8 09:38:00 65° SE 09:38:00 65° SE 09:42:35 10° SSE
SEDSat Delta rocket 4.3 09:40:38 34° E 09:40:38 34° E 09:43:05 10° ESE
ADEOS Rocket 3.7 09:46:34 10° SSE 09:52:04 47° ENE 09:57:18 10° N
Cosmos 1452 Rocket 4.4 09:58:16 35° SSW 09:58:16 35° SSW 10:01:32 10° S
Cosmos 2279 Rocket 4.0 09:52:38 10° N 09:58:49 79° E 10:05:00 10° S
Cosmos 1356 Rocket 3.9 09:59:14 21° N 10:01:49 57° E 10:05:50 10° SSE
Cosmos 1634 Rocket 4.1 10:03:05 47° WNW 10:03:45 49° W 10:09:43 10° SSW
Cosmos 2251 Rocket 3.4 10:03:34 10° SSW 10:08:56 86° WNW 10:14:18 10° NNE
SL-14 R/B 3.6 10:05:43 10° S 10:09:34 65° E 10:13:28 10° NNE
Ariane H10 4.5 10:10:36 26° SW 10:11:59 30° SSW 10:14:49 10° SE
Cosmos 1908 4.2 10:11:40 10° N 10:15:26 48° E 10:19:12 10° SSE
SL-19 R/B 3.9 10:13:36 10° NNE 10:16:32 69° ESE 10:19:48 10° S
FENGYUN 3A 3.6 10:15:04 10° N 10:20:27 68° WNW 10:25:50 10° SSW
Delta 168 3.7 10:22:05 26° N 10:22:54 29° NNE 10:26:15 10° E
EPKM 4.2 10:25:05 31° W 10:27:26 64° NNW 10:49:24 10° ENE
Cosmos 1953 2.6 10:26:47 34° NW 10:27:54 43° W 10:31:45 10° SSW
GPS 2-15 Rocket1 3.8 10:27:30 19° SW 10:30:51 52° SSE 10:35:40 10° E
Cosmos 1626 2.7 10:30:34 10° SSW 10:33:55 34° W 10:37:17 10° NNW
BREEZE-M DEB (TANK) 2.6 10:32:04 14° SSW 10:34:25 78° SE 10:41:47 10° NE
Cosmos 1331 Rocket 4.0 10:31:06 10° NNW 10:36:13 60° WSW 10:41:22 10° S
Palapa 6 Rocket 4.0 10:38:38 21° NW 10:40:07 27° N 10:43:50 10° NE
ALOS 2.8 10:36:56 10° NNW 10:41:07 34° WNW 10:45:20 10° SW
Cosmos 1092 Rocket 3.9 10:39:09 10° SSW 10:45:11 62° W 10:51:15 10° N
Cosmos 1484 Rocket 3.8 10:44:01 10° NNW 10:46:59 22° WNW 10:49:55 10° SW
H-2A R/B 3.2 10:49:34 10° SSW 10:53:16 25° W 10:56:56 10° NW
Meteor 1-24 Rocket 4.0 10:49:12 10° SSW 10:54:15 41° W 10:59:29 10° NNW
H-2A R/B 4.1 10:52:33 10° NNE 10:56:14 44° E 10:59:56 10° S
Cosmos 2228 3.3 10:52:20 10° N 10:56:42 74° E 11:01:04 10° S
ATLAS CENTAUR R/B 1.4 10:52:26 10° SSW 10:56:44 83° ESE 11:00:44 10° NNE
CZ-4B R/B 3.1 10:53:02 10° N 10:57:10 56° WNW 11:01:29 10° SSW
Cosmos 407 Rocket 3.5 10:53:11 10° S 10:58:17 83° ESE 11:03:24 10° NNE
Cosmos 1606 Rocket 3.8 10:55:24 10° N 10:59:51 76° E 11:04:18 10° S
CZ-3 R/B 3.8 10:42:22 15° WNW 11:00:23 36° NNW 11:07:41 10° NE
Sakura Rocket 4.2 10:53:54 10° WSW 11:02:19 88° NNW 11:08:13 10° ENE
USA 267 4.1 10:56:25 10° NE 11:02:45 53° SE 11:09:04 10° SSW
CZ-4B R/B 1.5 11:00:53 10° S 11:04:15 54° W 11:07:38 10° NNW
Cosmos 1140 Rocket 3.7 11:00:46 10° S 11:05:55 77° ESE 11:11:01 10° NNE
Cosmos 1302 Rocket 4.0 11:01:05 10° NNW 11:06:17 64° WSW 11:11:27 10° S
Cosmos 2082 Rocket 3.7 11:03:52 10° WSW 11:06:50 15° WNW 11:09:50 10° NW
Okean 1-7 Rocket 3.8 11:03:19 10° SSW 11:07:46 54° W 11:12:13 10° N
Stardust Del rocket 3.9 11:07:55 10° WNW 11:10:25 33° N 11:14:29 10° ENE
Meteor 1-31 Rocket 4.4 11:08:46 10° NW 11:11:05 15° WNW 11:13:25 10° WSW
Envisat 4.1 11:08:22 10° NNE 11:13:15 50° E 11:18:10 10° S
Meteor PRIRODA 4.3 11:10:29 10° NNW 11:13:47 33° WNW 11:17:07 10° SW
SL-27 R/B 3.1 11:13:49 10° S 11:17:18 63° E 11:20:49 10° NNE
